Starlink 34549

operational
NORAD ID: 65017 Int'l Des: 2025-161 Owner: SPXS Country: US Constellation: starlink
LEOCIRCULAR

Starlink 34549について

説明を読み込み中...

リアルタイム位置

3D地球を読み込み中...

次回通過

高度履歴

Altitude vs Time

uPlot chart will show altitude changes over time

軌道要素

1 65017U 25161C 25340.93642249 .00040294 00000-0 13645-2 0 9997
2 65017 53.1602 4.6957 0002349 91.4576 268.6694 15.30216566 21244
Epoch: Dec 6, 2025 • Age: 18 hours

現在のステータス

高度 490.9 km
速度 7.62 km/s
衛星直下点 -43.56°S, 101.79°W
打ち上げ日 Jul 30, 2025
運用期間 0.3 years
タイプ internet

技術仕様

分類 Payload
質量 575.00 kg
乾燥質量 530.00 kg
総質量 575.00 kg
長さ 0.30 m
直径 4.10 m
スパン 29.00 m
形状 Box + pan
製造者 SPXS
バスタイプ Starlink V2MO
フェーズステータス In Orbit
所有者/国 SPXS/US

大規模コンステレーション

Loading constellations...